Showing default

HJS-6C, 63430

Orbit data source: Space-Track

HJS-6C, 63430 is a payload satellite owned by Zhongguo Xingwang (CN) in LEO that was launched on Tue, 01 Apr 2025 UTC via a CHANG ZHENG 2D launch vehicle from the Jiuquan Satellite Launch Center, China (JSC). Payload-class satellites include a variety of spacecraft equipped with specific instruments for various scientific and technological missions. These include communications satellites like Starlink; space stations such as the ISS; scientific satellites like the Hubble; Earth observation satellites from companies like Planet Labs, Umbra, and HawkEye 360; GPS; miniature CubeSats for education and research; and military/defense satellites.

Loading next visibility...
Identifier
63430, 2025-067C
Orbit
LEO
Country
Flag of CNCN / PRC
Related business
Manufacturer
Changguang WJ
Mission
Operational Civil Communications
Bus & Motor
Unknown
Mass
~300 kg wet, ~300 kg dry
Launch date (UTC)
2025-04-01 (1 year ago)
Launch vehicle
CHANG ZHENG 2D
Launch site
Jiuquan Satellite Launch Center, China (JSC)
Object type
Payload
Rocket body
Debris
Shape & HBR
Box + 2 Pan, 1.1 m
Radar Cross Section
2.320 m², Large (>1 m²)

Expand to show TLE details & history
Last TLE update: 13 hours ago

TLE from 13 hours ago
0 HJS-6C
1 63430U 25067C   26171.29417831  .00002996  00000-0  15175-3 0  9996
2 63430  54.9981  14.0733 0007444   7.9190 352.1946 15.20061573 68405
Epoch: 2026-06-20T07:03Z
TLE epoch observation values (Epoch: 2026-06-20T07:03:37.005Z)
Latitude
-0.00005°
Longitude
-0.34179°
Altitude
501.668 km
Speed
7.617 km/s
True Right ascension
00h 56m 17s
True Declination
0° 00' 00"
Sunlit
Object was in daylight at epoch
Visualization orbit readout
Latitude
Unknown
Longitude
Unknown
Altitude
Unknown
Speed
Unknown
Apparent Right ascension
Unknown
Apparent Declination
Unknown
Sunlit
N/A
Visualization observer readout
Local Sidereal Time
07:24:41
Azimuth
Unknown
Elevation
Unknown
Doppler factor
Unknown
Orbital elements
Apogee altitude
510.742 km
Perigee altitude
500.493 km
Semi-major axis
6,883.755 km
Eccentricity
0.00074
Inclination
54.9981°
RAAN
14.0733°
Arg. of periapsis
7.919°
True anomaly
352.183°
Mean anomaly
352.1946°
Eccentric anomaly
352.1888°
Mean motion
3.80019 °/min
Orbital period
94.73 mins
BSTAR
0.00015175
Loading maneuver chart data...
Computing Atmospheric mass density...
Loading historical data...
Loading historical data...
Loading historical data...
Loading historical data...
Loading historical data...
Loading historical data...
Loading historical data...
Other satellites on launch #67 in the year 2025 (2025-04-01 UTC)

Documentation

Showing up to 5 results
|